#timestamp,LO_Frequency,Hit,StdDev 
1522587615.3,286047001.3,N
1522587635.2,286047001.3,N
1522587655.9,286047003.7,N
1522587675.7,286047004.3,N
1522587695.6,286047005.8,N
1522587715.4,286047009.1,N
1522587735.2,286047014.7,Y
1522587755.1,286047013.0,P
1522587756.0,286047013.0,N
1522587775.8,286047013.2,N
1522587795.7,286047011.7,N
1522587815.5,286047009.5,N
1522587835.3,286047013.0,Y
1522587855.2,286047004.1,P
1522587875.0,286047000.9,N
1522587875.9,286047000.9,N
1522587895.8,286046997.3,N
1522587915.6,286046999.4,N
1522587935.4,286046995.0,N
1522587955.3,286046993.9,N
1522587975.1,286046993.0,N
1522587995.9,286046995.1,N
1522588015.7,286046995.5,N
1522588035.5,286046995.9,N
1522588055.4,286046994.8,N
1522588075.2,286046990.1,N
1522588095.1,286046988.5,N
1522588096.0,286046988.5,N
1522588145.8,286046990.0,E
1522588155.7,286046992.8,N
1522588175.6,286046997.1,P
1522588195.4,286046997.2,N
1522588215.3,286046997.5,N
1522588235.1,286046997.9,N
1522588255.8,286046996.5,N
1522588275.7,286047003.2,N
1522588295.5,286047010.1,Y
1522588315.4,286047017.1,P
1522588335.2,286047019.2,N
1522588355.0,286047017.6,N
1522588355.9,286047017.6,N
1522588375.8,286047017.2,N
1522588395.6,286047016.3,N
1522588415.5,286047013.3,N
1522588435.3,286047012.0,N
1522588455.1,286047010.1,N
1522588475.9,286047013.5,N
1522588495.7,286047015.3,N
1522588515.5,286047017.2,Y
1522588535.4,286047001.6,P
1522588555.2,286047003.9,N
1522588575.1,286047007.1,N
1522588576.0,286047007.1,N
1522588595.8,286047008.0,N
1522588615.6,286047007.1,N
1522588635.5,286047001.3,N
1522588655.3,286046998.1,N
1522588675.2,286046997.8,N
1522588695.9,286046993.9,N
1522588715.7,286046991.9,N
1522588735.6,286046993.6,N
1522588755.4,286046992.5,N
1522588775.2,286046993.6,N
1522588795.1,286046993.6,N
1522588796.0,286046993.6,N
1522588815.8,286046994.7,N
1522588835.7,286046990.8,N
1522588855.5,286046988.8,N
1522588875.3,286046991.5,N
1522588895.2,286046987.0,N
1522588915.0,286046988.1,N
1522588915.9,286046988.1,N
1522588935.8,286046987.3,N
1522588955.6,286046989.4,N
1522588975.4,286046992.9,N
1522588995.3,286046995.8,N
1522589015.1,286047000.5,N
1522589035.8,286047002.3,N
1522589055.7,286047002.7,N
1522589075.5,286046998.8,N
1522589095.4,286046997.7,N
1522589115.2,286046993.6,N
1522589135.0,286046991.7,N
1522589135.9,286046991.7,N
1522589155.8,286046994.4,N
1522589175.6,286046992.0,N
1522589195.5,286046993.5,N
1522589215.3,286046996.0,N
1522589235.1,286046992.7,N
1522589255.9,286046991.4,N
1522589275.7,286046990.0,N
1522589295.6,286046985.4,Y
1522589315.4,286046992.3,P
1522589335.2,286046992.4,P
1522589355.1,286046991.9,P
1522589356.0,286046991.9,Y
1522589375.8,286046999.9,P
1522589395.7,286047002.2,N
1522589415.5,286047005.0,N
1522589435.3,286047007.8,N
1522589455.2,286047008.6,N
1522589475.0,286047007.9,N
1522589475.9,286047007.9,N
1522589495.8,286047006.7,N
1522589515.6,286047006.7,N
1522589535.4,286047007.1,N
1522589555.3,286047009.7,N
1522589575.1,286047014.4,Y
1522589595.9,286047007.0,P
1522589615.7,286047004.8,P
1522589635.5,286047001.4,N
1522589655.4,286046999.8,N
1522589675.2,286047000.8,N
1522589695.1,286047002.7,N
1522589696.0,286047002.7,N
1522589715.8,286047000.6,N
1522589735.6,286046998.2,N
1522589755.5,286047000.9,N
1522589775.3,286047000.0,N
1522589795.1,286047002.1,N
1522589815.9,286047004.1,N
1522589835.7,286047001.6,N
1522589855.6,286047000.9,N
1522589875.4,286046999.0,N
1522589895.2,286046995.1,N
1522589915.1,286046994.9,N
1522589916.0,286046994.9,N
1522589935.8,286046996.0,N
1522589955.7,286046993.6,N
1522589975.5,286046993.7,N
1522589995.3,286046995.0,N
1522590015.2,286046995.1,N
1522590035.0,286046995.2,N
1522590035.9,286046995.2,N
1522590055.8,286046995.7,N
1522590075.6,286046996.3,N
1522590095.4,286046995.7,N
1522590115.3,286046995.2,N
1522590135.1,286046995.9,N
1522590155.9,286046995.6,N
1522590175.7,286046993.6,N
1522590195.5,286046993.3,N
1522590215.4,286046996.3,N
1522590235.2,286046994.2,N
1522590255.0,286046994.3,N
1522590255.9,286046994.3,N
1522590275.8,286046994.6,N
1522590295.6,286046992.5,N
1522590315.5,286046990.5,Y
1522590335.3,286046995.5,P
1522590355.1,286046995.2,P
1522590375.9,286046995.8,P
1522590395.7,286046997.7,Y
1522590415.6,286047002.7,P
1522590435.4,286047001.0,N
1522590455.2,286047001.1,N
1522590475.1,286047001.2,N
1522590476.0,286047001.2,N
1522590495.8,286046998.8,N
1522590515.6,286046996.6,N
1522590535.5,286046998.2,N
1522590555.3,286046999.4,N
1522590575.2,286046998.8,N
1522590595.9,286046998.8,N
1522590615.7,286046996.9,N
1522590635.6,286046996.5,N
1522590655.4,286046999.2,N
1522590675.3,286046998.8,N
1522590695.1,286046998.4,N
1522590696.0,286046998.4,N
1522590715.8,286046998.3,N
1522590735.7,286047000.7,N
1522590755.5,286047001.0,N
1522590775.3,286046998.2,N
1522590795.2,286046999.1,N
1522590815.0,286046998.9,N
1522590815.9,286046998.9,N
1522590835.8,286046999.0,N
1522590855.6,286047001.2,N
1522590875.4,286046998.8,N
1522590895.3,286046998.3,N
1522590915.1,286046998.4,N
1522590935.9,286047001.1,N
1522590955.7,286046999.7,N
1522590975.5,286047002.4,N
1522590995.4,286047002.2,N
1522591015.2,286047000.3,N
1522591035.1,286047000.4,N
1522591036.0,286047000.4,N
1522591055.8,286047002.6,N
1522591075.6,286047001.7,N
1522591095.5,286047001.8,N
1522591115.3,286047000.2,N
1522591135.1,286047002.8,N
1522591155.9,286047002.2,N
1522591175.7,286047002.1,N
1522591195.6,286047002.0,N
